CZ-3C DEB, 40195

Orbit data source: Space-Track

CZ-3C DEB, 40195 is space debris in HEO originally from a launch on Fri, 24 Feb 2012 UTC launched from the Xichang Space Center, China (XSC). Debris objects in space refer to the collection of defunct objects orbiting the Earth. Examples of debris include non-operational satellites, rocket bodies, and fragments generated from explosions, collisions, or faulty payload assembly.

Loading next visibility...
Identifier
40195, 2012-008E
Orbit
HEO
Country
Flag of CNCN / PRC
Related business
Manufacturer
CALT
Mission
Spacecraft
Bus & Motor
Unknown
Mass
Unknown
Launch date (UTC)
2012-02-24 (14 years ago)
Launch vehicle
Unknown
Launch site
Xichang Space Center, China (XSC)
Object type
Payload
Rocket body
Debris
Shape & HBR
Unknown shape, 0.2 m
Radar Cross Section
Medium (>0.1 m² and <1 m²)

Expand to show TLE details & history
Last TLE update: 2 days ago

TLE from 2 days ago
0 CZ-3C DEB
1 40195U 12008E   25306.79537794  .00001327  00000-0  37925-2 0  9998
2 40195  20.2778 273.3441 7118509  44.3501 354.3509  2.39435735 11708
Epoch: 2025-11-02T19:05Z
TLE epoch observation values (Epoch: 2025-11-02T19:05:20.654Z)
Latitude
0.00018°
Longitude
-55.36256°
Altitude
1,358.336 km
Speed
9.282 km/s
True Right ascension
18h 13m 07s
True Declination
0° 00' 01"
Sunlit
Object was in daylight at epoch
Visualization orbit readout
Latitude
Unknown
Longitude
Unknown
Altitude
Unknown
Speed
Unknown
Apparent Right ascension
Unknown
Apparent Declination
Unknown
Sunlit
N/A
Visualization observer readout
Local Sidereal Time
15:46:08
Azimuth
Unknown
Elevation
Unknown
Doppler factor
Unknown
Orbital elements
Apogee altitude
34,031.969 km
Perigee altitude
423.937 km
Semi-major axis
23,606.09 km
Eccentricity
0.71185
Inclination
20.2778°
RAAN
273.3441°
Arg. of periapsis
44.3501°
True anomaly
316.09713°
Mean anomaly
354.3509°
Eccentric anomaly
341.22133°
Mean motion
0.59842 °/min
Orbital period
601.58 mins
BSTAR
0.0037925
Loading maneuver chart data...
Computing Atmospheric mass density...
Loading historical data...
Loading historical data...
Loading historical data...
Loading historical data...
Loading historical data...
Loading historical data...
Loading historical data...

Documentation

Showing up to 5 results
|